Content
SEND FEEDBACK

Daily
Averages
Monthly
Summary
United States of America

GOLVA, NORTH DAKOTA


Home > North America > United States > North Dakota
Elevation: 919 meters     Latitude: 46 42N     Longitude: 104 15W

WEATHER
 
SELECT A DAY
Number of Records: 89,681;   Date Range: 11/18/10 - 10/19/14
 
SHARE

PRINT THIS DATA

[ ← Previous Day ]
WEATHER ALMANAC - 13 FEBRUARY, 2013
[ Next Day → ]
[ °F ]   °C
Weather ElementAverageHighLow
Temperature1 °C4 °C (1:15 pm)-2 °C (9:35 pm)
Dewpoint-2.3 °C0 °C (7:15 am)-6 °C (10:35 pm)
Humidity78.8 %100 % (7:35 am)69 % (8:55 pm)
Barometer1006.8 hPa1011.9 hPa (11:55 pm)1003.4 hPa (5:35 am)
Wind Speed29.9 km/h42.6 km/h (8:35 pm)
Wind Gust55.5 km/h (8:55 pm)
Weather ElementAverage
Visibility15.6 km
Wind DirectionWNW (284.9 °)

Weather ElementTotal
Precipitation1.02 mm
Heating Degree Days17.3 (Base 18.3)
Averaged from 71 records on 13 February, 2013
WEATHER CONDITIONS BREAKOUT
WIND DIRECTION BREAKOUT
WEATHER BY HOUR - 13 FEBRUARY, 2013
[ °F ]   °C
Local TimeTemperatureDewpointHumidityBarometerVisibilityWind DirectionWind SpeedGust SpeedPrecipitationEventsConditions
12:35 AM0 °C-4 °C75 %1007.5 hPa16.1 kmSW (230°)16.7 km/hPartly Cloudy
12:55 AM0 °C-4 °C75 %1006.8 hPa16.1 kmSW (230°)18.5 km/hClear
1:15 AM0 °C-3 °C80 %1006.4 hPa16.1 kmSW (220°)18.5 km/hClear
1:35 AM0 °C-3 °C80 %1006.1 hPa16.1 kmSW (230°)24.1 km/hScattered Clouds
1:55 AM0 °C-3 °C80 %1005.8 hPa16.1 kmSW (230°)18.5 km/hOvercast
2:15 AM0 °C-3 °C80 %1005.4 hPa16.1 kmWSW (240°)22.2 km/h31.5 km/hMostly Cloudy
2:35 AM0 °C-3 °C80 %1005.4 hPa16.1 kmWSW (250°)27.8 km/hMostly Cloudy
2:55 AM0 °C-3 °C80 %1005.1 hPa16.1 kmWSW (250°)27.8 km/h35.2 km/hOvercast
3:15 AM0 °C-3 °C80 %1004.7 hPa16.1 kmWSW (250°)25.9 km/h33.3 km/hOvercast
3:35 AM0 °C-3 °C80 %1004.4 hPa16.1 kmWest (260°)24.1 km/h37 km/hOvercast
3:55 AM0 °C-3 °C80 %1004.4 hPa16.1 kmWest (260°)24.1 km/hOvercast
4:15 AM0 °C-3 °C80 %1004.1 hPa16.1 kmWSW (250°)27.8 km/hOvercast
4:35 AM0 °C-3 °C80 %1004.1 hPa16.1 kmWest (260°)24.1 km/hOvercast
4:55 AM1 °C-3 °C75 %1004.1 hPa16.1 kmWest (260°)29.6 km/hOvercast
5:15 AM0 °C-3 °C80 %1003.7 hPa16.1 kmWSW (250°)20.4 km/hOvercast
5:35 AM0 °C-3 °C80 %1003.4 hPa16.1 kmWest (260°)24.1 km/hOvercast
5:55 AM1 °C-3 °C75 %1003.4 hPa16.1 kmWest (260°)25.9 km/hOvercast
6:15 AM1 °C-3 °C75 %1003.4 hPa16.1 kmWest (270°)29.6 km/h35.2 km/hOvercast
6:35 AM2 °C-2 °C75 %1003.4 hPa16.1 kmWest (280°)38.9 km/h50.1 km/hOvercast
6:55 AM2 °C-1 °C81 %1003.4 hPa16.1 kmWest (280°)35.2 km/h44.4 km/hOvercast
7:15 AM2 °C0 °C87 %1003.7 hPa11.3 kmWNW (290°)37 km/h51.8 km/hMostly Cloudy
7:35 AM0 °C0 °C100 %1004.1 hPa6.4 kmWNW (290°)33.3 km/h48.1 km/h0.51 mmSnowLight Snow
7:55 AM1 °C0 °C93 %1004.1 hPa16.1 kmWNW (290°)33.3 km/h40.7 km/h0.51 mmMostly Cloudy
8:15 AM1 °C0 °C93 %1004.1 hPa16.1 kmWest (270°)24.1 km/hMostly Cloudy
8:35 AM2 °C0 °C87 %1004.1 hPa16.1 kmWest (280°)27.8 km/h35.2 km/hOvercast
8:55 AM2 °C0 °C87 %1004.1 hPa16.1 kmWNW (290°)38.9 km/hMostly Cloudy
9:15 AM2 °C-1 °C81 %1004.1 hPa16.1 kmWest (280°)35.2 km/h44.4 km/hMostly Cloudy
9:35 AM3 °C-1 °C75 %1004.4 hPa16.1 kmWNW (290°)38.9 km/h48.1 km/hPartly Cloudy
9:55 AM3 °C0 °C81 %1004.7 hPa16.1 kmWNW (290°)29.6 km/h40.7 km/hClear
10:15 AM3 °C-1 °C75 %1004.7 hPa16.1 kmWNW (290°)35.2 km/h44.4 km/hClear
10:35 AM3 °C-1 °C75 %1005.1 hPa16.1 kmWNW (290°)35.2 km/h42.6 km/hClear
10:55 AM3 °C-1 °C75 %1005.1 hPa16.1 kmWNW (290°)29.6 km/h42.6 km/hPartly Cloudy
11:15 AM3 °C-2 °C70 %1005.1 hPa4 kmWNW (290°)37 km/h46.3 km/hHaze
11:35 AM3 °C-2 °C70 %1005.4 hPa16.1 kmWNW (290°)33.3 km/h40.7 km/hMostly Cloudy
11:55 AM3 °C-2 °C70 %1005.8 hPa16.1 kmWNW (300°)35.2 km/h50.1 km/hMostly Cloudy
12:15 PM2 °C0 °C87 %1005.4 hPa11.3 kmWNW (290°)27.8 km/h48.1 km/hSnowLight Snow
12:35 PM2 °C0 °C87 %1005.4 hPa16.1 kmWest (280°)27.8 km/h37 km/hMostly Cloudy
12:55 PM3 °C0 °C81 %1005.8 hPa16.1 kmWNW (290°)31.5 km/h38.9 km/hMostly Cloudy
1:15 PM4 °C-1 °C70 %1006.1 hPa16.1 kmWNW (300°)38.9 km/h51.8 km/hScattered Clouds
1:35 PM3 °C-1 °C75 %1006.4 hPa16.1 kmWNW (300°)33.3 km/h46.3 km/hMostly Cloudy
1:55 PM3 °C0 °C81 %1006.4 hPa16.1 kmNW (310°)20.4 km/h29.6 km/hOvercast
2:15 PM3 °C-1 °C75 %1006.4 hPa16.1 kmWNW (300°)24.1 km/h33.3 km/hOvercast
2:35 PM3 °C-1 °C75 %1006.8 hPa16.1 kmNW (310°)33.3 km/h42.6 km/hOvercast
2:55 PM3 °C-2 °C70 %1007.1 hPa16.1 kmNW (310°)31.5 km/h44.4 km/hMostly Cloudy
3:15 PM3 °C-1 °C75 %1007.5 hPa16.1 kmWNW (300°)22.2 km/hOvercast
3:35 PM3 °C-1 °C75 %1007.5 hPa16.1 kmNW (310°)31.5 km/h37 km/hOvercast
3:55 PM3 °C-2 °C70 %1007.8 hPa16.1 kmNW (310°)33.3 km/h38.9 km/hOvercast
4:15 PM2 °C-2 °C75 %1008.1 hPa16.1 kmNW (310°)31.5 km/h42.6 km/hOvercast
4:35 PM2 °C-2 °C75 %1008.5 hPa16.1 kmNW (310°)33.3 km/h46.3 km/hOvercast
4:55 PM2 °C-2 °C75 %1008.8 hPa16.1 kmNW (310°)27.8 km/h48.1 km/hOvercast
5:15 PM2 °C-2 °C75 %1009.1 hPa16.1 kmNW (310°)31.5 km/h38.9 km/hOvercast
5:35 PM2 °C-2 °C75 %1009.1 hPa16.1 kmNW (310°)29.6 km/h42.6 km/hOvercast
5:55 PM1 °C-2 °C81 %1009.5 hPa16.1 kmNW (310°)31.5 km/h40.7 km/hOvercast
6:15 PM1 °C-2 °C81 %1009.8 hPa16.1 kmNW (310°)35.2 km/h44.4 km/hOvercast
6:35 PM0 °C-2 °C87 %1010.2 hPa16.1 kmNW (310°)29.6 km/h42.6 km/hMostly Cloudy
6:55 PM0 °C-2 °C87 %1010.2 hPa16.1 kmWNW (300°)27.8 km/h42.6 km/hMostly Cloudy
7:15 PM0 °C-2 °C87 %1010.2 hPa16.1 kmWNW (300°)24.1 km/hPartly Cloudy
7:35 PM0 °C-2 °C87 %1010.5 hPa16.1 kmWNW (290°)25.9 km/h35.2 km/hClear
7:55 PM0 °C-2 °C87 %1010.8 hPa16.1 kmWNW (300°)35.2 km/h42.6 km/hPartly Cloudy
8:15 PM0 °C-3 °C80 %1010.5 hPa16.1 kmWNW (300°)29.6 km/h38.9 km/hClear
8:35 PM0 °C-3 °C80 %1010.8 hPa16.1 kmWNW (290°)42.6 km/h51.8 km/hPartly Cloudy
8:55 PM0 °C-5 °C69 %1011.2 hPa16.1 kmNW (310°)40.7 km/h55.5 km/hMostly Cloudy
9:15 PM-1 °C-5 °C75 %1011.2 hPa16.1 kmNW (310°)29.6 km/h42.6 km/hMostly Cloudy
9:35 PM-2 °C-5 °C80 %1011.5 hPa16.1 kmNW (310°)24.1 km/h38.9 km/hMostly Cloudy
9:55 PM-2 °C-5 °C80 %1011.5 hPa16.1 kmWNW (300°)16.7 km/hOvercast
10:15 PM-2 °C-5 °C80 %1011.5 hPa16.1 kmWNW (300°)29.6 km/h37 km/hMostly Cloudy
10:35 PM-2 °C-6 °C74 %1011.5 hPa16.1 kmWNW (300°)40.7 km/h53.8 km/hPartly Cloudy
10:55 PM-2 °C-6 °C74 %1011.5 hPa16.1 kmWNW (300°)35.2 km/h48.1 km/hMostly Cloudy
11:15 PM-2 °C-6 °C74 %1011.5 hPa16.1 kmWNW (300°)35.2 km/h46.3 km/hOvercast
11:35 PM-2 °C-6 °C74 %1011.5 hPa16.1 kmWNW (300°)35.2 km/h51.8 km/hOvercast
11:55 PM-2 °C-6 °C74 %1011.9 hPa16.1 kmWNW (290°)33.3 km/h50.1 km/hOvercast
Hourly data recorded from K20U, located 0 kilometers away from Golva, North Dakota







STORIES FROM OUR PARTNERS